KC0VVH Weather Reports


time (UTC)temp
F
wind
direction
speed
knots
gust
knots
rain 1hr
in
rain 24hr
in
rain mn
in
humidity
%
barometer
mb
20260906095416 61 0 0.0 0.0 0.00 0.00 0.00 54 1017.6
20260906094516 62 0 0.0 0.0 0.00 0.00 0.00 52 1017.6
20260906093616 62 0 0.0 0.0 0.00 0.00 0.00 51 1017.6
20260906092716 62 0 0.0 0.0 0.00 0.00 0.00 50 1017.6
20260906091837 63 0 0.0 0.0 0.00 0.00 0.00 49 1017.6
20260906090916 63 0 0.0 0.0 0.00 0.00 0.00 47 1017.6
20260906090016 63 0 0.0 0.0 0.00 0.00 0.00 48 1017.6
20260906085416 63 0 0.0 0.0 0.00 0.00 0.00 47 1017.6
20260906084516 63 0 0.0 0.0 0.00 0.00 0.00 47 1017.6
20260906083637 63 0 0.0 0.0 0.00 0.00 0.00 46 1017.6
20260906082716 64 0 0.0 0.0 0.00 0.00 0.00 47 1017.6
20260906081816 64 0 0.0 0.0 0.00 0.00 0.00 45 1017.6
20260906080916 64 246 0.0 0.9 0.00 0.00 0.00 46 1017.6
20260906080016 64 0 0.0 0.0 0.00 0.00 0.00 47 1017.6
20260906075437 64 0 0.0 0.0 0.00 0.00 0.00 47 1017.6
20260906074537 65 0 0.0 0.0 0.00 0.00 0.00 45 1017.6
20260906073616 65 0 0.0 0.0 0.00 0.00 0.00 45 1017.6
20260906072716 66 0 0.0 0.0 0.00 0.00 0.00 43 1017.6
20260906071816 66 0 0.0 0.0 0.00 0.00 0.00 43 1017.6
20260906070916 67 0 0.0 0.0 0.00 0.00 0.00 43 1017.6
20260906070016 67 0 0.0 0.0 0.00 0.00 0.00 40 1017.6
20260906065416 68 0 0.0 0.0 0.00 0.00 0.00 40 1017.6
20260906064516 69 0 0.0 0.0 0.00 0.00 0.00 38 1017.6
20260906063616 70 0 0.0 0.0 0.00 0.00 0.00 35 1017.6
20260906062737 73 0 0.0 0.0 0.00 0.00 0.00 32 1017.6
20260906061816 74 246 0.9 3.5 0.00 0.00 0.00 24 1017.6
20260906060937 73 246 0.9 4.3 0.00 0.00 0.00 24 1017.6
20260906060016 74 0 0.0 0.0 0.00 0.00 0.00 27 1017.6
20260906055416 75 0 0.0 0.0 0.00 0.00 0.00 25 1017.6
20260906054516 76 0 0.0 0.0 0.00 0.00 0.00 23 1017.6
20260906053616 77 0 0.0 0.0 0.00 0.00 0.00 20 1017.6
20260906052716 78 246 0.0 1.7 0.00 0.00 0.00 20 1017.6
20260906051816 78 246 0.9 6.1 0.00 0.00 0.00 21 1017.6
20260906050937 78 246 1.7 6.1 0.00 0.00 0.00 21 1017.6
20260906050016 78 246 2.6 6.1 0.00 0.00 0.00 21 1017.6
20260906045416 78 246 1.7 4.3 0.00 0.00 0.00 21 1017.6
20260906044516 78 246 0.9 3.5 0.00 0.00 0.00 22 1017.6
20260906043616 79 246 0.9 6.1 0.00 0.00 0.00 21 1017.6
20260906042716 79 246 2.6 7.0 0.00 0.00 0.00 21 1017.6
20260906041816 79 246 2.6 6.1 0.00 0.00 0.00 21 1017.6
20260906040937 79 246 1.7 4.3 0.00 0.00 0.00 22 1017.6
20260906040016 79 249 1.7 6.1 0.00 0.00 0.00 22 1017.6
20260906035416 80 250 1.7 6.1 0.00 0.00 0.00 21 1017.6
20260906034516 80 243 0.9 7.0 0.00 0.00 0.00 20 1017.6
20260906033616 80 238 3.5 7.0 0.00 0.00 0.00 19 1017.6
20260906032716 80 238 3.5 5.2 0.00 0.00 0.00 19 1017.6
20260906031837 80 238 2.6 7.0 0.00 0.00 0.00 19 1017.6
20260906030916 81 238 2.6 7.0 0.00 0.00 0.00 19 1017.6
20260906030016 80 239 3.5 5.2 0.00 0.00 0.00 20 1017.6
20260906025416 80 240 3.5 5.2 0.00 0.00 0.00 21 1017.6
20260906024516 81 241 3.5 5.2 0.00 0.00 0.00 22 1017.6
20260906023616 81 241 2.6 5.2 0.00 0.00 0.00 24 1017.6
20260906022716 81 253 2.6 7.0 0.00 0.00 0.00 26 1017.6
20260906021816 81 32 0.9 3.5 0.00 0.00 0.00 26 1017.6
20260906020916 81 32 1.7 3.5 0.00 0.00 0.00 26 1017.6
20260906020016 80 32 0.9 3.5 0.00 0.00 0.00 27 1017.6
20260906015416 80 32 0.0 2.6 0.00 0.00 0.00 28 1017.6
20260906014516 80 0 0.0 0.0 0.00 0.00 0.00 29 1017.6
20260906013616 80 0 0.0 0.0 0.00 0.00 0.00 29 1017.6
20260906012716 81 0 0.0 0.0 0.00 0.00 0.00 31 1017.6
20260906011816 82 0 0.0 0.0 0.00 0.00 0.00 28 1017.6
20260906010916 83 0 0.0 0.0 0.00 0.00 0.00 26 1017.6
20260906010016 85 0 0.0 0.0 0.00 0.00 0.00 26 1017.6
20260906005416 85 0 0.0 0.0 0.00 0.00 0.00 24 1017.6
20260906004516 86 0 0.0 0.9 0.00 0.00 0.00 24 1017.6
20260906003637 86 32 0.9 5.2 0.00 0.00 0.00 23 1017.6
20260906002737 87 33 0.9 5.2 0.00 0.00 0.00 23 1017.6
20260906001816 88 32 0.9 5.2 0.00 0.00 0.00 23 1017.6
20260906000937 89 26 0.9 4.3 0.00 0.00 0.00 22 1017.6
20260906000016 90 23 0.0 4.3 0.00 0.00 0.00 21 1017.6
20260905235437 90 24 0.9 4.3 0.00 0.00 0.00 21 1017.6
20260905234516 91 19 1.7 6.1 0.00 0.00 0.00 21 1017.6
20260905233616 91 19 1.7 7.8 0.00 0.00 0.00 20 1017.6
20260905232716 92 37 0.0 3.5 0.00 0.00 0.00 20 1017.6
20260905231816 91 43 0.9 5.2 0.00 0.00 0.00 20 1017.6
20260905230916 91 4 0.9 5.2 0.00 0.00 0.00 20 1017.6
20260905230016 91 7 1.7 7.8 0.00 0.00 0.00 21 1017.6
20260905225416 91 19 2.6 8.7 0.00 0.00 0.00 21 1017.6
20260905224537 90 48 2.6 8.7 0.00 0.00 0.00 22 1017.6
20260905223616 91 41 0.9 5.2 0.00 0.00 0.00 21 1017.6
20260905222737 91 36 2.6 7.8 0.00 0.00 0.00 21 1017.6
20260905221816 91 17 3.5 7.8 0.00 0.00 0.00 23 1017.6
20260905220916 90 23 2.6 7.8 0.00 0.00 0.00 22 1017.6
20260905220016 90 33 4.3 9.6 0.00 0.00 0.00 22 1017.6
20260905215416 90 24 3.5 9.6 0.00 0.00 0.00 22 1017.6
20260905214516 91 27 2.6 6.1 0.00 0.00 0.00 21 1017.6
20260905213616 90 17 3.5 9.6 0.00 0.00 0.00 22 1017.6
20260905212716 90 13 4.3 9.6 0.00 0.00 0.00 22 1017.6
20260905211816 90 28 2.6 8.7 0.00 0.00 0.00 22 1017.6
20260905210916 90 14 3.5 9.6 0.00 0.00 0.00 22 1017.6
20260905210037 90 20 2.6 7.8 0.00 0.00 0.00 22 1017.6
20260905205416 89 33 3.5 8.7 0.00 0.00 0.00 23 1017.6
20260905204516 90 19 3.5 10.4 0.00 0.00 0.00 23 1017.6
20260905203616 90 24 4.3 10.4 0.00 0.00 0.00 23 1017.6
20260905202716 89 15 3.5 9.6 0.00 0.00 0.00 24 1017.6
20260905201816 89 18 4.3 9.6 0.00 0.00 0.00 24 1017.6
20260905200916 88 8 2.6 7.0 0.00 0.00 0.00 25 1017.6
20260905200016 88 351 2.6 7.8 0.00 0.00 0.00 23 1017.6
20260905195416 88 332 3.5 7.8 0.00 0.00 0.00 23 1017.6
20260905194516 88 25 3.5 8.7 0.00 0.00 0.00 24 1017.6
20260905193616 87 15 2.6 8.7 0.00 0.00 0.00 25 1017.6
20260905192737 86 38 1.7 7.8 0.00 0.00 0.00 24 1017.6
20260905191816 86 26 2.6 8.7 0.00 0.00 0.00 25 1017.6
20260905190916 86 16 2.6 8.7 0.00 0.00 0.00 24 1017.6
20260905190016 87 10 2.6 10.4 0.00 0.00 0.00 23 1017.6
20260905185437 87 10 3.5 10.4 0.00 0.00 0.00 24 1017.6
20260905184516 86 17 3.5 8.7 0.00 0.00 0.00 25 1017.6
20260905183616 87 16 2.6 8.7 0.00 0.00 0.00 24 1017.6
20260905182716 86 11 3.5 8.7 0.00 0.00 0.00 24 1017.6
20260905181816 86 10 2.6 7.8 0.00 0.00 0.00 25 1017.6
20260905180916 85 350 2.6 8.7 0.00 0.00 0.00 24 1017.6
20260905180016 85 5 1.7 8.7 0.00 0.00 0.00 24 1017.6
20260905175416 85 344 0.9 6.1 0.00 0.00 0.00 25 1017.6
20260905174516 84 346 0.9 7.0 0.00 0.00 0.00 26 1017.6
20260905173616 83 341 1.7 4.3 0.00 0.00 0.00 28 1017.6
20260905172737 82 315 1.7 8.7 0.00 0.00 0.00 29 1017.6
20260905171816 82 17 1.7 7.8 0.00 0.00 0.00 30 1017.6
20260905170916 83 54 0.9 6.1 0.00 0.00 0.00 30 1017.6
20260905170016 83 56 0.0 3.5 0.00 0.00 0.00 30 1017.6
20260905165416 83 56 0.0 2.6 0.00 0.00 0.00 30 1017.6
20260905164516 82 56 0.9 4.3 0.00 0.00 0.00 32 1017.6
20260905163616 80 57 0.9 5.2 0.00 0.00 0.00 35 1017.6
20260905162737 80 57 0.9 5.2 0.00 0.00 0.00 34 1017.6
20260905161837 78 0 0.0 0.0 0.00 0.00 0.00 33 1017.6
20260905160916 78 58 0.0 2.6 0.00 0.00 0.00 33 1017.6
20260905160016 77 0 0.0 0.0 0.00 0.00 0.00 34 1017.6
20260905155416 77 0 0.0 0.0 0.00 0.00 0.00 34 1017.6
20260905154516 74 0 0.0 0.0 0.00 0.00 0.00 39 1017.6
20260905153616 73 68 0.0 4.3 0.00 0.00 0.00 42 1017.6
20260905152716 71 68 0.9 4.3 0.00 0.00 0.00 44 1017.6
20260905151816 71 68 0.0 2.6 0.00 0.00 0.00 41 1017.6
20260905150916 71 48 0.0 1.7 0.00 0.00 0.00 40 1017.6
20260905150016 70 40 0.9 4.3 0.00 0.00 0.00 41 1017.6
20260905145416 70 253 0.0 1.7 0.00 0.00 0.00 41 1017.6
20260905144516 70 249 0.0 2.6 0.00 0.00 0.00 40 1017.6
20260905143616 69 0 0.0 0.0 0.00 0.00 0.00 40 1017.6
20260905142716 68 0 0.0 0.0 0.00 0.00 0.00 43 1017.6
20260905141837 67 271 0.0 3.5 0.00 0.00 0.00 44 1017.6
20260905140916 66 271 0.9 3.5 0.00 0.00 0.00 44 1017.6
20260905140037 66 0 0.0 0.9 0.00 0.00 0.00 44 1017.6
20260905135416 66 0 0.0 0.0 0.00 0.00 0.00 45 1017.6
20260905134516 66 271 0.0 2.6 0.00 0.00 0.00 44 1017.6
20260905133616 65 271 0.0 2.6 0.00 0.00 0.00 44 1017.6
20260905132716 65 0 0.0 0.0 0.00 0.00 0.00 45 1017.6
20260905131837 65 0 0.0 0.0 0.00 0.00 0.00 46 1017.6
20260905130916 65 236 0.0 2.6 0.00 0.00 0.00 45 1017.6
20260905130016 64 99 0.0 2.6 0.00 0.00 0.00 47 1017.6
20260905125416 63 84 0.0 0.9 0.00 0.00 0.00 48 1017.6
20260905124516 63 0 0.0 0.0 0.00 0.00 0.00 48 1017.6
20260905123616 62 0 0.0 0.0 0.00 0.00 0.00 50 1017.6
20260905122737 63 84 0.0 0.9 0.00 0.00 0.00 49 1017.6
20260905121816 63 84 0.0 1.7 0.00 0.00 0.00 48 1017.6
20260905120917 64 84 0.0 0.9 0.00 0.00 0.00 46 1017.6